STARLINK-32382, 61258

Orbit data source: Space-Track

STARLINK-32382, 61258 is a payload satellite owned by SpaceX/Seattle (US) in LEO that was launched on Wed, 25 Sep 2024 UTC via an FALCON 9 launch vehicle from the Air Force Western Test Range (AFWTR). Payload-class satellites include a variety of spacecraft equipped with specific instruments for various scientific and technological missions. These include communications satellites like Starlink; space stations such as the ISS; scientific satellites like the Hubble; Earth observation satellites from companies like Planet Labs, Umbra, and HawkEye 360; GPS; miniature CubeSats for education and research; and military/defense satellites.

Loading next visibility...
Identifier
61258, 2024-175R
Orbit
LEO
Last TLE update
21 hours ago
Origin
Manufacturer
SpaceX/Seattle
Mission
Operational Commercial Communications
Bus & Motor
STARLINK V2M, Unknown motor
Mass
730 kg wet, ~700 kg dry
Launch date (UTC)
2024-09-25 (9 months ago)
Launch vehicle
FALCON 9
Launch site
Air Force Western Test Range (AFWTR)
Object type
Payload
Rocket body
Debris
Shape & HBR
Box + 2 Pan, 29 m
Radar Cross Section
33.884 m², Large (>1 m²)

Expand to show TLE details & history

TLE from 21 hours ago
0 STARLINK-32382
1 61258U 24175R   25188.43944362  .00000144  00000-0  16974-4 0  9990
2 61258  53.1588 253.2752 0001002 101.5319 258.5795 15.30186320 43909
Epoch: 2025-07-07T10:32Z
TLE epoch observation values (Epoch: 2025-07-07T10:32:47.928Z)
Latitude
0.00002°
Longitude
169.42675°
Altitude
476.292 km
Speed
7.629 km/s
True Right ascension
16h 53m 06s
True Declination
0° 00' 00"
Sunlit
Object was in full shadow at epoch
Visualization orbit readout
Latitude
47.11323°
Longitude
-141.23623°
Altitude
479.876 km
Speed
7.632 km/s
Apparent Right ascension
02h 30m 28s
Apparent Declination
39° 58' 01"
Sunlit
Object is in daylight
Visualization observer readout
Local Sidereal Time
19:18:13
Azimuth
48.477° ENE
Elevation
13.29°
Doppler factor
1
Orbital elements
Apogee altitude
476.199 km
Perigee altitude
474.826 km
Semi-major axis
6,853.65 km
Eccentricity
0.0001
Inclination
53.1588°
RAAN
253.2752°
Arg. of periapsis
101.5319°
True anomaly
Unknown
Mean anomaly
258.5795°
Eccentric anomaly
Unknown
Mean motion
3.82525 °/min
Orbital period
94.11 mins
BSTAR
0.000016974
Loading maneuver chart data...
Loading SW <> Apogee altitude chart data...
Loading historical data...
Loading historical data...
Loading historical data...
Loading historical data...
Loading historical data...
Loading historical data...
Loading historical data...

STARLINK-32382 Visibility forecast

Observer location: undefined°, undefined°

Span
Click to sort rows by Start time (UTC) header in descending order
Start Az.
Max El. time (UTC)
Max El. Az.
Max El.
End time (UTC)
End Az.
4 mins2025-07-08 12:03:42.264Z338.18° N2025-07-08 12:05:42.264Z11.268° NNE16.248°2025-07-08 12:07:42.264Z50.779° ENE
5 mins2025-07-08 13:42:42.264Z315.178° NNW2025-07-08 13:44:42.264Z75.16° E44.299°2025-07-08 13:47:42.264Z126.488° SE
5 mins2025-07-09 06:37:42.264Z224.862° SW2025-07-09 06:39:42.264Z203.812° SW43.628°2025-07-09 06:42:42.264Z52.215° ENE
|